Tiempo cada hora Abja-Paluoja

Hoy, 20 Octubre, Martes

Tiempo Temperatura Precipitaciones Viento Presión Humedad
00:00 +3°C° 0.2 mm 4 mps 750 mmHg 89%
01:00 +1°C° 0.2 mm 4 mps 750 mmHg 88%
02:00 +2°C° 0.2 mm 3 mps 751 mmHg 88%
03:00 +1°C° 0 mm 3 mps 751 mmHg 88%
04:00 +1°C° 0 mm 3 mps 752 mmHg 87%
05:00 +1°C° 0 mm 3 mps 752 mmHg 87%
06:00 +1°C° 0 mm 2 mps 753 mmHg 88%
07:00 +1°C° 0 mm 2 mps 754 mmHg 88%
08:00 +1°C° 0 mm 2 mps 755 mmHg 89%
09:00 +2°C° 0 mm 2 mps 755 mmHg 83%
10:00 +3°C° 0 mm 2 mps 756 mmHg 77%
11:00 +4°C° 0 mm 3 mps 756 mmHg 72%
12:00 +5°C° 0 mm 2 mps 757 mmHg 71%
13:00 +5°C° 0 mm 2 mps 757 mmHg 70%
14:00 +5°C° 0 mm 2 mps 757 mmHg 69%
15:00 +5°C° 0 mm 1 mps 757 mmHg 74%
16:00 +5°C° 0 mm 1 mps 757 mmHg 78%
17:00 +3°C° 0 mm 0 mps 757 mmHg 83%
18:00 +3°C° 0 mm 0 mps 757 mmHg 84%
19:00 +4°C° 0 mm 1 mps 757 mmHg 86%
20:00 +4°C° 0 mm 1 mps 757 mmHg 87%
21:00 +3°C° 0 mm 2 mps 757 mmHg 87%
22:00 +4°C° 0 mm 2 mps 756 mmHg 87%
23:00 +4°C° 0 mm 2 mps 756 mmHg 88%

Mañana, 21 Octubre, Miércoles

Tiempo Temperatura Precipitaciones Viento Presión Humedad
00:00 +4°C° 0 mm 2 mps 756 mmHg 87%
01:00 +4°C° 0 mm 2 mps 755 mmHg 86%
02:00 +3°C° 0 mm 3 mps 755 mmHg 85%
03:00 +3°C° 0.3 mm 3 mps 754 mmHg 87%
04:00 +3°C° 0.3 mm 3 mps 753 mmHg 89%
05:00 +3°C° 0.3 mm 3 mps 753 mmHg 92%
06:00 +3°C° 0.6 mm 3 mps 752 mmHg 92%
07:00 +3°C° 0.6 mm 3 mps 752 mmHg 93%
08:00 +3°C° 0.6 mm 3 mps 752 mmHg 94%
09:00 +4°C° 0.2 mm 3 mps 751 mmHg 94%
10:00 +4°C° 0.2 mm 3 mps 751 mmHg 93%
11:00 +4°C° 0.2 mm 3 mps 751 mmHg 92%
12:00 +5°C° 0 mm 3 mps 751 mmHg 92%
13:00 +6°C° 0 mm 2 mps 751 mmHg 91%
14:00 +7°C° 0 mm 2 mps 751 mmHg 90%
15:00 +7°C° 0 mm 2 mps 751 mmHg 92%
16:00 +7°C° 0 mm 2 mps 751 mmHg 93%
17:00 +7°C° 0 mm 2 mps 750 mmHg 94%
18:00 +7°C° 0 mm 3 mps 750 mmHg 95%
19:00 +7°C° 0 mm 3 mps 751 mmHg 95%
20:00 +7°C° 0 mm 3 mps 751 mmHg 95%
21:00 +7°C° 0.1 mm 3 mps 750 mmHg 96%
22:00 +8°C° 0.1 mm 3 mps 750 mmHg 96%
23:00 +8°C° 0.1 mm 3 mps 749 mmHg 97%

Pasado mañana, 22 Octubre, Jueves

Tiempo Temperatura Precipitaciones Viento Presión Humedad
00:00 +8°C° 0.2 mm 3 mps 749 mmHg 96%
01:00 +9°C° 0.2 mm 3 mps 748 mmHg 96%
02:00 +9°C° 0.2 mm 3 mps 748 mmHg 96%
03:00 +8°C° 1.3 mm 4 mps 747 mmHg 96%
04:00 +8°C° 1.3 mm 4 mps 746 mmHg 96%
05:00 +8°C° 1.3 mm 4 mps 745 mmHg 96%
06:00 +10°C° 1.1 mm 4 mps 745 mmHg 95%
07:00 +10°C° 1.1 mm 4 mps 744 mmHg 95%
08:00 +10°C° 1.1 mm 4 mps 743 mmHg 94%
09:00 +10°C° 0.3 mm 5 mps 743 mmHg 93%
10:00 +10°C° 0.3 mm 5 mps 743 mmHg 92%
11:00 +11°C° 0.3 mm 6 mps 742 mmHg 91%
12:00 +11°C° 0.5 mm 6 mps 742 mmHg 89%
13:00 +11°C° 0.5 mm 6 mps 742 mmHg 87%
14:00 +12°C° 0.5 mm 7 mps 742 mmHg 85%
15:00 +12°C° 0.1 mm 7 mps 743 mmHg 84%
16:00 +12°C° 0.1 mm 7 mps 743 mmHg 83%
17:00 +12°C° 0.1 mm 7 mps 743 mmHg 82%
18:00 +11°C° 0 mm 7 mps 744 mmHg 82%
19:00 +11°C° 0 mm 6 mps 744 mmHg 83%
20:00 +11°C° 0 mm 6 mps 745 mmHg 84%
21:00 +12°C° 0 mm 5 mps 745 mmHg 85%
22:00 +12°C° 0 mm 5 mps 745 mmHg 87%
23:00 +12°C° 0 mm 5 mps 745 mmHg 89%

23 Octubre, Viernes

Tiempo Temperatura Precipitaciones Viento Presión Humedad
00:00 +12°C° 0.1 mm 5 mps 744 mmHg 90%
01:00 +12°C° 0.1 mm 4 mps 744 mmHg 91%
02:00 +12°C° 0.1 mm 4 mps 743 mmHg 92%
03:00 +12°C° 2.3 mm 4 mps 743 mmHg 93%
04:00 +12°C° 2.3 mm 5 mps 742 mmHg 94%
05:00 +12°C° 2.3 mm 5 mps 742 mmHg 94%
06:00 +12°C° 2 mm 5 mps 741 mmHg 94%
07:00 +12°C° 2 mm 5 mps 741 mmHg 94%
08:00 +12°C° 2 mm 5 mps 741 mmHg 94%
09:00 +12°C° 1 mm 5 mps 741 mmHg 89%
10:00 +12°C° 1 mm 5 mps 741 mmHg 84%
11:00 +12°C° 1 mm 4 mps 741 mmHg 80%
12:00 +12°C° 0.1 mm 5 mps 741 mmHg 79%
13:00 +12°C° 0.1 mm 5 mps 741 mmHg 78%
14:00 +12°C° 0.1 mm 5 mps 741 mmHg 77%
15:00 +12°C° 0 mm 4 mps 741 mmHg 80%
16:00 +11°C° 0 mm 4 mps 741 mmHg 84%
17:00 +10°C° 0 mm 3 mps 741 mmHg 87%
18:00 +10°C° 0.5 mm 3 mps 741 mmHg 88%
19:00 +9°C° 0.5 mm 2 mps 741 mmHg 89%
20:00 +9°C° 0.5 mm 2 mps 741 mmHg 90%
21:00 +9°C° 0.1 mm 2 mps 742 mmHg 90%
22:00 +9°C° 0.1 mm 2 mps 742 mmHg 90%
23:00 +8°C° 0.1 mm 2 mps 742 mmHg 90%

24 Octubre, Sábado

Tiempo Temperatura Precipitaciones Viento Presión Humedad
00:00 +7°C° 0 mm 2 mps 743 mmHg 90%
01:00 +7°C° 0 mm 2 mps 743 mmHg 91%
02:00 +6°C° 0 mm 2 mps 744 mmHg 91%
03:00 +5°C° 0 mm 2 mps 744 mmHg 91%
04:00 +6°C° 0 mm 1 mps 744 mmHg 91%
05:00 +5°C° 0 mm 1 mps 744 mmHg 91%
06:00 +5°C° 0 mm 1 mps 744 mmHg 91%
07:00 +5°C° 0 mm 1 mps 744 mmHg 91%
08:00 +5°C° 0 mm 1 mps 744 mmHg 91%
09:00 +6°C° 0 mm 1 mps 744 mmHg 89%
10:00 +6°C° 0 mm 2 mps 744 mmHg 87%
11:00 +7°C° 0 mm 2 mps 744 mmHg 85%
12:00 +8°C° 0.2 mm 2 mps 743 mmHg 87%
13:00 +8°C° 0.2 mm 2 mps 743 mmHg 89%
14:00 +8°C° 0.2 mm 2 mps 743 mmHg 91%
15:00 +8°C° 1 mm 2 mps 742 mmHg 93%
16:00 +8°C° 1 mm 2 mps 742 mmHg 95%
17:00 +8°C° 1 mm 2 mps 742 mmHg 96%
18:00 +8°C° 1.1 mm 2 mps 742 mmHg 96%
19:00 +8°C° 1.1 mm 2 mps 742 mmHg 96%
20:00 +8°C° 1.1 mm 2 mps 742 mmHg 97%
21:00 +8°C° 0.4 mm 2 mps 742 mmHg 97%
22:00 +9°C° 0.4 mm 1 mps 743 mmHg 97%
23:00 +9°C° 0.4 mm 1 mps 743 mmHg 97%

25 Octubre, Domingo

Tiempo Temperatura Precipitaciones Viento Presión Humedad
00:00 +7°C° 0.2 mm 2 mps 744 mmHg 96%
01:00 +7°C° 0.2 mm 2 mps 744 mmHg 95%
02:00 +7°C° 0.2 mm 3 mps 745 mmHg 94%
03:00 +5°C° 0.1 mm 3 mps 746 mmHg 94%
04:00 +6°C° 0.1 mm 2 mps 747 mmHg 94%
05:00 +5°C° 0.1 mm 2 mps 747 mmHg 94%
06:00 +5°C° 0 mm 2 mps 748 mmHg 92%
07:00 +5°C° 0 mm 2 mps 749 mmHg 91%
08:00 +5°C° 0 mm 2 mps 749 mmHg 89%
09:00 +5°C° 0 mm 2 mps 750 mmHg 84%
10:00 +5°C° 0 mm 3 mps 751 mmHg 80%
11:00 +7°C° 0 mm 3 mps 751 mmHg 75%
12:00 +7°C° 0 mm 3 mps 751 mmHg 74%
13:00 +7°C° 0 mm 3 mps 752 mmHg 73%
14:00 +8°C° 0 mm 3 mps 752 mmHg 72%
15:00 +7°C° 0 mm 3 mps 752 mmHg 76%
16:00 +5°C° 0 mm 3 mps 752 mmHg 80%
17:00 +6°C° 0 mm 2 mps 752 mmHg 84%
18:00 +6°C° 0 mm 2 mps 752 mmHg 86%
19:00 +6°C° 0 mm 2 mps 752 mmHg 87%
20:00 +7°C° 0 mm 2 mps 752 mmHg 89%
21:00 +7°C° 0.5 mm 2 mps 752 mmHg 91%
22:00 +7°C° 0.5 mm 2 mps 752 mmHg 93%
23:00 +7°C° 0.5 mm 2 mps 753 mmHg 96%

26 Octubre, Lunes

Tiempo Temperatura Precipitaciones Viento Presión Humedad
00:00 +8°C° 0.3 mm 3 mps 753 mmHg 95%
01:00 +9°C° 0.3 mm 3 mps 753 mmHg 95%
02:00 +9°C° 0.3 mm 3 mps 753 mmHg 95%
03:00 +9°C° 0.2 mm 3 mps 753 mmHg 95%
04:00 +9°C° 0.2 mm 3 mps 753 mmHg 94%
05:00 +9°C° 0.2 mm 3 mps 753 mmHg 94%
06:00 +9°C° 0.1 mm 3 mps 753 mmHg 95%
07:00 +9°C° 0.1 mm 2 mps 754 mmHg 95%
08:00 +9°C° 0.1 mm 2 mps 754 mmHg 96%
09:00 +9°C° 0 mm 2 mps 755 mmHg 95%
10:00 +10°C° 0 mm 2 mps 755 mmHg 95%
11:00 +11°C° 0 mm 1 mps 755 mmHg 94%
12:00 +11°C° 0 mm 1 mps 755 mmHg 93%
13:00 +11°C° 0 mm 1 mps 756 mmHg 92%
14:00 +12°C° 0 mm 1 mps 756 mmHg 92%
15:00 +11°C° 0 mm 1 mps 756 mmHg 93%
16:00 +11°C° 0 mm 1 mps 756 mmHg 95%
17:00 +10°C° 0 mm 1 mps 756 mmHg 96%
18:00 +10°C° 0 mm 1 mps 757 mmHg 96%
19:00 +9°C° 0 mm 1 mps 757 mmHg 96%
20:00 +9°C° 0 mm 1 mps 757 mmHg 96%
21:00 +8°C° 0 mm 2 mps 757 mmHg 95%
22:00 +8°C° 0 mm 2 mps 757 mmHg 94%
23:00 +8°C° 0 mm 2 mps 758 mmHg 94%
Mostrar más

Necesitamos Su Consentimiento

Meteoprog y nuestros Proveedores de Servicios pueden almacenar y acceder a sus datos personales como cookies, identificadores de dispositivo u otras tecnologías similares de su dispositivo y procesar dichos datos para personalizar contenido y anuncios, además de ofrecer funciones de redes sociales y analizar el tráfico.

  • Almacenar y/o acceder a información en su dispositivo

    Se puede almacenar o acceder a cookies, identificadores de dispositivo u otra información de su dispositivo para los fines anteriormente indicados.

  • Anuncios y contenido personalizados, medición de anuncios y contenido, percepciones del público, y desarrollo de productos

    Los anuncios y el contenido pueden personalizarse en base a su perfil. Se pueden añadir más datos para personalizar mejor los anuncios y contenidos. Se puede medir el rendimiento de los anuncios y contenidos. Se puede obtener la percepción sobre el público que ha visto los anuncios y contenidos. Dichos datos pueden usarse para desarrollar o mejorar la experiencia del usuario, sistemas y software.

Al hacer clic en ‘Estoy De Acuerdo’ usted permitirá el uso de las cookies, identificadores de dispositivo, balizas web u otras tecnologías similares indicadas. Su configuración puede cambiarse desde el navegador de su dispositivo.

Para ciertos fines, los intereses legítimos pueden ser considerados por encima del consentimiento. Puede leer más sobre ello en nuestra Política de Privacidad y Cookies.